Wind_Speed
15 15 15 15 14 13 13 11 10 8 6 5 4 3 4 4 4 4 4 3 3 3 4 5 6 7 8 10 12 13 15 17 18 19 20 21 22 22 22 23 24 25 26 27 27 25 23 21 20 19 18 18 18 18 17 17 16 15 14 13 13 14 14 14 14 14 14 14 14 15 15 16 17 17 18 19 19 20 20 21 21 21 20 20 20 20
13 13 12 12 12 11 11 10 8 7 6 5 5 5 5 5 5 5 4 3 3 4 4 5 7 8 10 11 13 14 16 18 19 20 21 22 23 23 24 24 25 26 27 26 25 22 20 18 17 17 17 17 17 17 17 16 15 14 14 14 15 15 15 15 15 15 15 16 16 17 17 18 18 19 19 20 20 20 21 21 20 20 19 19 18 18
11 11 10 9 9 9 9 8 7 6 6 6 6 6 6 6 6 5 4 3 3 4 5 6 7 9 11 12 14 15 17 18 20 21 22 23 24 24 25 25 26 26 25 23 21 18 16 15 15 15 16 16 16 17 16 16 15 15 15 16 16 16 16 16 16 16 16 16 17 17 18 18 18 18 18 18 18 18 18 18 18 17 16 16 15 14
9 8 8 7 7 7 7 7 6 7 7 7 7 7 7 6 6 5 4 4 4 4 5 7 8 10 11 13 14 16 18 19 20 22 23 24 24 25 25 25 24 23 21 18 16 14 13 13 14 15 16 16 16 16 16 16 15 16 16 16 16 16 16 16 16 16 16 17 17 17 17 17 17 16 16 15 15 15 15 15 14 14 14 13 13 12
7 6 6 5 6 6 6 6 6 6 6 6 6 6 6 5 5 5 4 4 4 5 6 8 9 10 12 13 15 16 18 19 20 21 22 22 23 23 22 21 19 17 15 14 13 13 13 14 15 16 16 17 17 17 16 16 16 16 17 17 16 16 16 16 16 16 16 17 17 17 16 16 15 15 14 13 13 13 13 12 12 12 13 12 12 11
5 5 4 4 5 5 6 6 6 6 6 5 5 4 4 4 4 4 4 5 5 6 7 8 9 11 12 13 14 15 16 17 18 19 19 19 19 18 18 17 15 14 14 14 14 14 15 16 16 17 17 17 17 17 17 17 17 18 18 18 17 18 18 18 18 18 18 18 17 17 16 15 14 14 13 13 12 12 11 11 11 11 11 11 11 11
5 5 5 4 5 5 5 6 6 5 5 5 5 4 4 4 4 4 5 5 6 6 7 8 9 10 11 12 13 13 14 15 15 15 15 15 15 15 14 14 14 14 14 15 15 16 16 16 17 17 17 17 17 17 18 18 19 19 20 20 20 20 20 20 20 19 19 18 17 16 15 15 14 13 13 12 11 11 10 10 10 10 10 10 10 10
5 5 5 5 5 6 6 5 5 5 5 5 5 5 5 5 5 5 5 6 6 7 7 8 9 10 10 11 11 12 12 12 12 13 13 13 12 12 13 13 13 14 14 15 15 15 16 16 17 17 17 18 18 18 19 19 20 21 21 21 22 22 22 21 20 19 18 17 16 15 14 14 13 13 12 11 11 10 10 9 9 8 8 8 9 9
6 6 6 6 6 6 6 6 6 5 5 5 5 5 5 5 6 6 6 7 7 8 8 9 9 10 10 11 11 11 11 11 11 11 11 11 11 11 12 12 13 13 14 14 15 15 16 16 17 18 18 19 19 20 20 21 21 22 22 22 22 22 21 20 19 17 16 15 14 14 13 13 12 12 11 11 10 10 9 9 9 8 8 8 8 8
7 7 7 7 7 7 6 6 6 6 5 5 6 6 6 6 6 7 7 8 8 8 9 9 9 10 10 10 10 10 11 11 11 11 11 11 11 11 12 12 13 13 14 15 15 16 16 17 18 19 20 20 20 21 21 21 22 22 22 22 22 21 20 18 16 15 14 13 13 13 12 12 12 11 10 10 9 9 9 9 9 8 9 9 9 9
8 8 8 8 8 8 7 6 6 6 6 6 7 7 8 8 8 8 8 8 9 9 9 9 9 10 10 10 10 10 10 11 11 11 11 11 12 12 13 13 14 14 15 15 16 17 17 18 20 20 21 21 21 21 21 21 21 22 21 21 20 19 17 16 14 13 13 12 12 12 11 11 11 10 10 9 9 9 9 9 9 9 9 9 9 10
9 9 9 9 9 8 8 7 7 7 7 7 8 8 8 9 9 8 9 9 9 9 9 10 10 10 10 10 10 11 11 11 11 11 12 12 13 13 14 14 15 15 16 16 17 17 18 20 21 22 22 22 22 21 21 21 20 20 19 19 17 16 15 14 13 12 12 12 11 11 10 10 10 9 9 9 9 9 9 9 9 10 10 10 10 10
10 10 10 10 9 9 8 8 8 8 8 8 8 8 9 9 9 9 9 10 10 10 10 10 10 10 10 11 11 11 11 12 12 13 13 13 14 14 15 15 16 16 16 17 17 18 19 21 22 23 23 23 22 21 21 20 19 18 17 16 15 14 13 12 12 12 11 11 11 10 10 9 9 9 9 9 9 9 10 10 10 10 10 10 11 11
10 10 10 10 9 9 8 8 8 8 9 9 9 9 10 10 11 10 10 10 10 11 11 10 11 11 11 11 11 12 12 13 13 14 14 14 15 15 16 16 17 17 17 18 18 19 21 22 24 24 24 23 22 21 20 18 17 15 14 14 13 12 12 12 11 11 11 10 10 10 9 9 9 9 9 9 9 10 10 10 11 11 11 11 11 11
10 10 9 9 9 9 8 8 8 9 9 9 9 10 10 11 11 11 10 10 10 11 11 11 11 11 11 12 12 12 13 14 14 15 15 15 15 16 16 17 17 18 18 19 20 21 23 24 25 25 24 23 21 20 18 16 14 13 12 12 12 11 11 11 11 10 10 10 9 9 9 9 9 9 9 9 10 10 10 11 11 11 11 12 12 12
10 10 9 9 9 9 9 9 9 9 10 10 10 10 10 11 11 11 11 11 11 11 11 11 12 12 12 12 12 13 13 14 15 16 16 16 16 17 17 18 19 20 20 21 22 23 24 25 25 24 23 21 20 18 16 14 12 11 11 11 11 11 11 11 10 10 10 9 9 9 9 9 9 9 10 10 10 11 11 11 11 12 12 12 13 13
10 10 9 9 9 9 9 9 9 10 10 11 11 11 11 11 11 12 12 12 12 13 13 13 13 13 13 13 14 14 14 14 16 17 17 18 18 18 19 20 22 22 22 22 22 23 24 24 23 22 21 19 17 15 13 12 11 10 10 10 10 10 10 10 10 9 9 9 9 9 9 9 10 10 10 11 11 11 11 12 12 12 12 13 13 13
10 9 9 9 9 10 10 10 10 10 11 11 11 12 12 12 12 12 13 13 14 14 14 15 15 14 14 14 15 16 16 16 17 19 20 20 20 20 21 22 23 23 22 22 22 22 22 22 21 20 18 16 15 13 12 11 10 10 10 10 10 10 10 10 9 9 9 9 9 10 10 10 10 11 11 11 12 12 12 12 13 13 13 14 14 14
10 9 9 9 10 10 11 11 11 11 11 12 12 12 12 13 13 13 14 14 15 15 16 16 16 16 16 16 17 18 18 18 19 21 22 22 22 22 22 22 22 22 21 20 19 20 20 19 19 18 16 15 13 12 11 10 10 10 9 9 9 9 9 9 9 9 9 10 10 10 11 11 11 12 12 12 13 13 13 13 14 14 14 15 15 15
10 9 9 9 10 11 11 11 11 12 12 13 13 13 13 14 14 14 15 15 16 16 16 17 17 18 18 18 19 19 19 19 20 22 23 23 22 21 20 20 20 19 18 17 17 17 17 17 17 16 15 14 12 11 11 10 10 10 9 9 9 9 9 9 10 10 10 10 11 11 11 12 12 13 13 14 14 14 14 15 15 15 15 16 16 16
9 9 9 9 10 11 12 12 12 12 13 13 14 14 14 14 14 15 15 15 16 16 16 17 17 18 18 19 19 19 19 19 20 21 22 22 21 19 18 18 17 17 16 15 15 15 16 16 15 15 14 13 12 12 11 11 10 10 10 10 10 10 10 10 10 10 11 11 12 12 13 13 14 14 15 15 15 16 16 16 16 17 17 17 17 18
9 10 10 10 10 11 12 13 13 13 13 13 14 14 14 14 14 14 15 15 15 15 16 16 16 16 16 16 17 17 17 17 18 19 20 20 19 17 15 15 15 15 14 13 13 14 14 14 14 14 14 13 13 12 11 11 11 10 10 10 10 10 10 11 11 11 12 12 13 13 14 15 15 16 16 16 17 17 17 18 18 18 18 19 19 19
11 11 11 11 11 12 12 13 13 13 13 13 13 13 13 13 13 13 14 14 14 14 14 14 14 14 13 13 13 14 14 15 15 17 18 18 17 15 14 13 13 13 12 12 12 12 12 13 13 14 14 13 13 12 12 11 11 11 11 11 11 11 11 12 12 13 13 14 14 15 15 16 17 17 18 18 18 19 19 19 20 20 20 20 20 20
12 12 12 12 12 12 12 12 12 12 12 11 11 11 11 12 12 12 12 12 12 12 12 12 12 12 11 11 11 11 12 13 14 15 16 17 16 14 13 12 12 12 11 10 10 10 11 11 13 13 14 13 13 12 12 12 12 12 12 12 12 12 13 13 13 14 14 15 16 16 17 18 18 19 19 20 20 20 20 21 21 21 21 22 22 22
12 12 13 13 13 12 12 12 12 12 11 11 11 11 11 11 11 11 11 11 11 11 11 11 11 11 10 10 10 10 11 12 12 13 14 15 15 13 12 12 11 11 10 9 9 10 10 11 12 13 13 13 13 13 12 12 12 12 12 13 13 13 14 14 15 15 16 17 17 18 18 19 19 20 20 21 21 21 22 22 22 22 23 23 23 23
12 13 13 13 13 13 13 13 13 13 13 13 13 13 13 12 12 12 11 11 11 12 13 13 13 12 10 9 9 10 10 10 11 12 13 14 13 12 12 12 11 11 10 9 9 9 9 10 11 12 13 13 13 13 13 13 13 13 13 13 14 14 15 15 16 17 17 18 19 19 20 20 20 21 21 22 22 22 23 23 23 23 24 24 24 24
13 13 13 13 13 13 13 13 13 13 13 14 14 15 14 14 14 14 13 13 13 14 14 15 15 14 12 11 10 10 10 10 10 10 11 12 12 12 12 12 12 11 11 9 8 9 9 10 11 11 12 13 13 13 13 13 13 14 14 14 15 16 16 17 18 18 19 19 20 20 21 21 21 22 22 23 23 23 23 23 24 24 24 25 25 25
13 13 13 13 13 13 13 13 13 13 13 13 14 15 15 15 15 15 14 14 13 14 15 15 15 14 13 12 11 10 10 9 9 9 10 11 12 12 12 12 12 11 11 10 8 8 9 10 11 11 11 12 12 13 13 13 14 14 15 15 16 17 17 18 18 19 20 20 21 21 21 22 22 22 23 23 23 23 24 24 24 24 25 25 26 26
13 13 13 13 13 13 14 14 13 13 13 12 13 14 14 15 15 15 14 13 13 14 14 14 14 13 13 13 12 11 10 9 8 9 9 11 12 13 12 12 12 11 11 10 9 8 9 10 10 10 10 11 11 12 12 12 13 14 15 15 16 17 17 18 19 19 20 21 21 21 22 22 22 23 23 23 23 24 24 24 24 25 25 26 27 27
13 14 14 14 14 14 14 14 14 13 13 12 12 12 13 13 13 13 13 13 13 14 14 13 13 13 13 13 13 12 10 8 8 8 9 11 13 13 12 12 11 11 11 11 10 9 9 8 8 8 8 9 9 10 10 11 12 13 14 15 16 17 18 18 19 20 20 21 21 21 22 22 22 22 23 23 23 24 24 24 25 25 26 27 28 28
13 14 14 14 14 14 14 14 14 14 13 12 12 11 12 12 12 12 12 12 13 13 13 13 12 12 12 12 12 12 11 9 8 8 9 11 13 13 12 12 11 11 11 11 12 12 10 8 7 7 7 8 8 9 10 11 12 13 14 15 16 17 17 18 19 19 20 20 20 20 21 21 22 22 22 23 23 24 24 24 25 26 27 28 29 29
13 13 13 13 13 14 14 14 14 14 13 12 11 11 11 11 11 11 12 12 12 13 13 12 12 11 11 11 11 11 10 10 9 9 9 11 12 13 12 12 12 11 11 11 12 12 11 11 10 9 9 9 10 10 11 11 12 13 14 14 15 15 16 16 17 18 18 19 19 20 20 21 21 22 23 23 24 24 25 25 25 26 27 28 29 30
11 11 11 12 12 13 13 14 14 13 13 12 11 11 11 11 11 11 11 11 12 12 12 12 12 11 11 10 10 9 9 9 10 10 10 11 12 13 13 12 12 12 11 11 11 12 12 14 14 12 11 11 11 10 10 11 12 12 13 13 14 14 15 16 16 17 18 18 19 19 20 21 21 22 23 24 24 25 25 25 26 26 27 28 29 29
9 9 10 11 12 12 13 13 13 13 13 12 11 11 11 11 11 11 11 11 11 12 12 12 11 11 10 10 9 8 8 9 10 10 10 11 13 13 13 13 13 13 13 13 13 13 14 14 14 14 13 12 11 11 11 11 12 12 13 13 14 15 16 17 18 19 19 20 20 21 21 21 22 22 23 24 24 25 25 25 25 26 26 27 28 28
9 9 10 11 12 12 13 13 13 13 13 12 12 11 11 11 11 11 11 11 11 11 11 11 11 11 10 10 9 8 7 9 10 10 10 11 12 13 14 14 13 13 14 14 14 14 15 14 14 15 15 14 13 13 13 13 13 14 14 15 16 17 18 19 19 20 21 21 21 21 21 21 22 22 22 23 23 23 23 23 24 24 25 25 26 27
10 10 11 11 12 13 13 13 13 13 12 12 11 11 11 11 11 11 11 11 11 11 11 11 11 10 10 10 9 8 8 9 10 10 11 11 12 13 14 14 14 14 14 15 15 15 16 16 15 15 16 16 16 16 15 15 16 16 17 17 18 18 19 20 20 21 21 21 21 21 20 20 20 21 21 21 21 21 21 21 22 22 23 23 24 25
10 10 11 11 12 12 12 12 12 12 12 12 11 11 11 11 11 11 11 11 11 11 11 10 10 10 10 10 10 9 9 9 9 10 11 12 12 13 14 14 14 14 15 15 15 15 16 16 17 17 17 18 18 19 19 18 18 19 19 20 20 20 20 20 20 20 20 20 19 19 19 18 18 18 18 18 18 19 19 19 19 20 20 21 22 22
10 10 10 11 11 11 12 11 11 11 11 11 11 11 11 11 11 11 11 11 11 11 11 10 10 10 10 10 10 10 9 9 10 10 11 12 13 14 14 14 14 14 14 14 15 15 16 16 17 18 19 19 20 21 21 21 21 21 22 22 22 22 22 21 21 20 19 19 18 17 17 16 16 15 15 16 16 16 16 17 17 18 18 19 20 21
9 10 10 11 11 11 11 11 11 11 11 11 11 11 11 11 11 11 11 11 11 11 11 11 11 11 10 10 10 10 10 10 11 11 12 12 13 14 14 14 14 14 14 14 14 15 16 16 17 19 20 21 22 22 23 23 23 24 23 23 23 23 23 22 21 20 19 18 17 17 16 15 14 14 14 14 14 15 15 15 16 17 17 18 19 20
9 10 10 11 11 10 10 10 10 10 10 10 11 11 11 11 11 11 11 11 11 11 11 11 11 11 11 11 11 11 11 11 12 12 12 13 13 14 14 14 14 14 14 14 14 15 16 17 18 19 20 22 23 24 24 24 24 24 25 25 25 24 23 22 21 20 19 18 17 16 15 15 14 14 14 14 14 14 15 15 16 17 18 19 19 20
10 10 11 11 11 10 10 10 10 10 10 10 11 11 11 11 11 11 11 11 11 11 12 12 12 11 11 11 11 11 12 12 12 13 13 13 14 14 14 14 14 14 14 14 15 16 17 17 18 20 21 22 24 25 25 25 25 25 25 26 25 25 23 22 21 20 18 17 17 16 16 15 15 15 15 15 15 15 16 16 16 17 18 19 20 21
11 11 11 11 11 10 10 10 10 10 10 10 11 11 11 11 11 11 11 11 11 12 12 12 12 12 11 11 11 12 12 12 13 13 13 14 14 14 14 14 14 14 14 15 16 17 18 18 19 20 21 23 24 25 26 26 25 25 25 25 25 24 23 22 21 19 18 17 16 16 16 16 16 16 17 17 17 17 17 17 18 18 19 20 20 21
11 11 11 11 11 10 10 10 10 10 10 10 11 11 11 11 11 11 11 11 12 12 12 13 13 12 12 12 12 12 13 13 13 14 14 14 14 14 14 14 14 14 15 16 17 18 19 20 20 21 22 23 24 26 26 27 26 26 25 24 24 24 24 22 21 19 18 17 16 16 16 16 17 18 18 19 19 19 19 19 19 20 20 21 21 22
11 11 11 11 11 11 10 10 10 10 10 11 11 11 12 12 12 11 11 12 12 12 13 13 13 13 13 12 12 12 13 13 14 14 14 14 14 14 14 14 15 15 16 17 18 19 20 21 22 22 23 24 25 26 27 27 27 26 25 24 23 23 23 22 20 19 18 17 16 16 16 17 18 19 20 20 20 21 21 21 22 22 22 22 23 23
11 11 11 11 11 11 11 11 11 11 11 11 11 12 12 12 12 12 12 12 12 13 13 13 13 13 13 13 12 12 12 12 13 13 14 14 14 14 14 15 15 16 17 18 19 20 21 22 22 23 24 25 26 26 27 27 27 26 25 24 22 22 21 20 20 19 18 17 17 17 17 18 19 20 21 22 22 23 23 23 24 24 24 24 25 25
11 11 11 11 11 11 11 11 11 11 11 11 12 12 13 13 13 13 12 12 13 13 13 13 14 14 14 14 13 13 13 12 11 12 12 13 14 14 15 16 16 17 18 19 20 21 22 22 23 24 25 26 27 27 27 27 27 26 25 23 22 21 20 20 19 19 18 18 18 18 18 19 20 22 23 24 24 25 25 25 25 26 26 26 26 26
11 11 11 11 11 12 12 12 12 12 12 12 12 13 13 13 13 13 13 13 13 13 14 14 14 14 15 14 14 14 13 12 11 11 11 12 13 14 15 16 17 18 19 20 21 22 23 23 24 25 25 26 27 28 28 27 26 25 24 22 21 21 20 20 20 19 19 19 19 19 19 20 22 23 25 26 26 27 27 26 26 27 27 27 26 26
12 11 11 12 12 12 12 12 12 12 12 12 12 13 13 14 14 14 14 14 14 14 14 14 15 15 15 15 15 14 14 13 12 12 11 12 12 13 15 16 17 19 20 21 22 23 24 25 25 25 25 26 26 27 27 26 25 23 22 21 21 21 21 21 20 20 20 20 20 20 21 22 24 25 26 27 28 28 28 28 28 27 27 27 27 26
12 12 12 12 12 12 13 13 13 13 13 12 12 13 13 14 14 14 15 15 15 15 15 15 16 16 16 15 15 14 14 14 14 13 13 13 14 15 15 16 17 18 19 20 21 23 24 25 25 26 26 25 25 25 25 25 23 22 21 21 21 21 22 22 21 21 20 21 21 22 23 24 25 26 27 28 29 30 29 29 29 28 28 27 27 27
13 13 13 13 13 13 13 13 13 13 13 13 13 13 13 14 14 15 15 15 15 16 16 16 16 16 16 16 15 15 15 15 15 15 15 15 16 16 16 17 18 18 19 20 21 23 24 25 26 26 26 25 23 22 22 22 22 21 21 21 22 22 22 22 22 21 22 22 23 24 25 26 26 27 27 28 29 30 30 30 30 29 28 27 27 27
13 13 13 13 13 14 14 14 14 14 14 14 14 14 14 14 14 15 15 15 16 16 16 16 17 17 17 16 16 16 16 16 16 16 16 17 17 17 17 18 19 19 20 21 22 24 25 26 26 26 25 24 22 20 19 20 20 21 22 22 22 22 22 22 22 23 23 24 25 26 26 27 27 27 27 27 28 30 31 31 30 29 28 27 27 27
Wind_Direction
296 298 300 302 304 305 307 310 311 311 312 314 325 348 7 20 25 23 15 3 347 327 303 287 276 269 263 262 261 261 261 261 262 263 265 268 271 274 277 281 284 287 289 290 290 289 286 282 279 276 274 274 273 273 274 275 277 278 278 278 276 274 272 271 270 269 266 264 262 259 257 254 252 251 251 251 251 251 252 252 253 253 254 255 255 255
298 300 302 303 305 308 310 314 318 322 330 341 353 4 14 23 27 26 16 358 337 317 293 272 264 262 263 264 264 263 262 262 262 264 266 269 272 275 278 281 284 286 288 288 287 285 281 277 274 272 271 272 274 275 277 279 281 282 282 282 281 280 278 276 273 270 268 267 266 264 262 261 259 258 257 257 257 257 257 257 258 259 259 259 259 259
300 302 303 305 310 312 313 319 328 338 350 0 6 9 12 14 16 16 13 355 331 311 294 278 268 265 264 264 264 264 264 264 265 267 269 271 274 277 280 282 284 285 285 284 281 278 274 270 269 269 270 273 275 277 279 280 281 282 283 284 284 284 283 281 278 275 272 271 270 269 268 266 265 264 263 262 262 261 261 261 260 260 260 259 258 258
300 303 305 312 317 317 318 326 338 350 359 6 9 9 9 8 5 0 355 341 319 300 289 282 276 272 269 265 264 264 265 266 268 269 271 274 276 279 281 283 283 282 280 278 273 269 266 265 265 267 269 271 274 275 276 277 279 282 284 285 286 286 285 283 281 278 276 274 272 272 271 270 269 268 268 267 265 264 262 261 259 257 256 254 253 252
300 303 309 319 323 323 324 333 343 352 359 4 6 5 3 359 352 344 336 322 304 289 280 276 273 271 269 266 265 265 266 267 269 270 272 275 277 278 280 279 278 275 272 268 264 262 260 261 263 265 267 269 271 273 274 276 279 282 284 285 284 283 281 279 277 275 273 271 271 270 270 271 271 272 272 270 267 264 260 257 254 252 251 250 249 248
298 301 310 318 321 323 327 333 340 347 352 354 355 354 350 343 333 323 310 298 289 282 276 272 269 268 268 267 267 267 268 269 270 271 272 273 275 275 274 271 267 263 260 259 258 258 259 260 262 265 267 269 271 273 275 277 280 282 283 283 282 280 278 276 274 272 270 270 269 270 270 272 273 273 272 270 267 263 258 253 250 248 247 247 247 247
293 297 305 311 316 321 326 330 334 338 342 342 339 336 331 324 315 305 294 287 282 278 276 272 270 269 269 269 270 270 271 271 272 272 272 273 273 272 269 265 262 260 259 258 259 259 261 263 264 267 269 271 273 275 277 279 281 282 283 282 282 280 280 278 277 275 273 272 271 271 272 272 272 271 269 267 265 262 259 254 250 247 245 244 245 247
294 297 301 308 315 319 323 324 326 329 331 329 327 324 317 311 304 297 291 287 283 281 278 276 273 271 271 272 273 274 274 274 274 273 273 273 272 271 268 266 264 263 262 261 261 262 264 266 268 270 271 273 275 277 279 280 282 283 284 283 283 283 282 282 280 278 276 273 271 270 270 269 268 266 265 263 262 260 258 255 252 249 246 244 245 246
296 300 302 306 313 318 320 317 316 317 319 315 312 310 309 304 298 293 288 285 282 280 279 278 277 275 275 275 275 276 276 275 274 273 273 272 271 269 267 266 265 264 263 263 263 265 267 268 271 272 274 276 277 279 281 283 284 285 285 285 284 283 282 281 279 276 272 269 266 265 264 264 262 261 260 259 258 258 257 256 255 254 252 251 250 249
298 301 304 305 308 311 313 310 307 307 308 303 298 295 294 292 291 288 285 283 281 279 278 276 276 276 277 277 277 276 275 274 273 272 271 270 268 266 265 264 263 263 263 264 266 268 271 273 274 276 277 278 280 282 283 284 285 285 285 284 283 281 279 277 273 269 264 262 260 259 259 259 258 258 257 256 256 257 257 257 257 257 258 258 258 258
299 301 303 305 305 306 306 301 298 298 298 296 292 289 286 283 283 283 283 282 280 279 277 275 274 275 276 278 277 276 274 273 272 272 271 269 268 267 266 266 265 266 267 269 271 274 276 278 278 279 280 281 282 283 285 285 285 284 283 281 279 277 273 270 265 261 258 256 256 255 255 254 254 254 254 255 255 256 256 257 257 257 258 260 260 261
298 300 302 302 303 303 301 297 295 293 292 289 287 285 283 281 280 281 280 279 279 279 278 278 276 275 275 276 277 276 275 273 272 271 270 269 269 269 269 269 270 271 272 275 277 279 281 281 281 282 282 283 284 286 287 287 285 283 280 277 274 270 265 261 258 255 253 253 252 251 251 251 251 252 253 254 255 255 256 257 257 258 258 258 259 260
297 299 301 302 300 299 297 295 293 290 287 284 281 280 280 282 282 281 279 278 277 278 278 279 278 276 274 273 273 274 274 272 271 270 269 268 269 270 271 272 273 276 278 280 282 283 284 284 284 284 285 287 288 290 290 288 285 281 277 272 267 262 258 255 253 252 251 250 249 248 248 248 249 251 252 254 255 255 256 257 258 259 260 260 260 260
296 297 299 299 297 295 294 291 288 285 282 281 280 279 279 280 280 280 279 276 275 275 275 274 272 272 272 272 271 271 272 271 270 270 269 270 271 273 275 276 278 281 283 285 286 287 286 286 286 286 288 290 291 292 291 288 283 278 271 266 261 256 253 252 250 249 249 247 246 245 245 247 249 251 252 254 255 256 257 259 261 262 263 264 264 264
294 296 297 295 292 289 287 285 282 280 278 278 278 276 276 275 276 276 276 274 273 273 273 271 270 270 271 272 272 271 272 272 272 272 274 276 278 280 282 283 285 286 288 289 290 289 288 287 287 288 290 291 292 291 289 285 280 273 266 261 256 253 251 250 249 247 246 245 244 244 246 248 250 253 255 256 257 258 259 261 263 265 267 268 269 269
292 293 293 290 286 283 280 279 276 274 275 276 276 275 275 274 275 276 275 274 274 274 274 273 273 274 275 276 276 275 275 277 278 279 281 284 285 287 288 289 289 290 291 291 291 290 288 287 288 289 291 291 291 290 287 282 276 269 263 258 254 252 250 249 248 247 246 245 245 246 248 251 254 256 258 260 261 262 263 265 267 269 270 272 273 273
290 290 289 287 283 280 279 278 277 275 275 277 277 277 276 277 278 280 280 279 279 280 279 279 279 280 283 284 283 281 281 283 284 285 287 288 288 289 290 290 290 291 291 291 290 289 287 287 288 289 290 290 290 287 284 279 273 267 261 257 254 252 251 250 248 248 247 247 249 250 252 255 258 260 263 265 266 268 270 271 273 274 275 276 277 277
289 289 289 287 283 281 281 280 279 278 278 278 279 280 281 282 283 284 285 284 284 285 285 286 285 285 286 286 286 286 287 287 288 288 288 288 288 288 288 289 289 290 291 291 289 288 287 287 288 289 290 289 288 285 282 277 272 267 262 258 255 253 252 252 251 251 251 252 254 256 259 261 263 266 269 271 273 274 276 278 279 280 280 280 281 281
288 289 288 285 284 282 281 279 279 279 279 279 280 282 283 284 285 287 286 286 286 287 287 289 289 289 288 285 285 288 290 290 289 289 288 287 288 288 289 289 289 290 290 290 288 286 285 286 287 288 289 288 286 283 280 275 271 267 263 260 257 256 255 255 255 256 257 259 261 263 265 268 270 272 274 276 278 280 281 283 283 284 284 283 283 282
287 286 284 282 282 281 278 276 276 277 277 278 280 281 282 284 285 286 285 286 287 287 288 288 289 289 290 289 289 289 290 290 290 289 288 288 289 290 292 292 291 291 290 288 286 284 284 285 286 287 287 286 284 281 278 275 271 268 265 263 261 260 260 260 261 262 264 266 268 270 272 274 276 278 279 281 283 284 285 286 286 286 285 285 284 283
285 283 281 280 280 278 275 275 275 276 277 279 280 282 282 284 285 285 285 286 287 287 288 288 288 289 290 290 290 291 292 291 291 290 289 290 291 294 295 295 293 291 290 287 284 282 282 283 284 285 285 284 282 280 278 276 273 271 270 268 267 267 267 267 268 269 270 272 274 275 277 279 280 282 283 285 286 286 287 287 287 286 285 284 283 282
284 282 280 280 279 277 276 277 278 279 279 280 280 281 283 285 285 286 287 288 288 288 289 289 289 290 291 292 292 293 293 292 291 291 292 293 295 297 299 297 295 292 290 287 283 281 280 281 281 281 281 281 280 279 278 277 277 275 274 273 273 272 272 272 273 274 275 276 278 279 281 282 284 285 286 287 288 288 288 287 287 286 285 284 283 282
284 282 281 281 281 280 280 281 281 282 282 281 280 281 284 285 286 286 288 290 291 291 292 293 293 294 294 294 295 295 295 293 292 292 294 295 297 301 302 300 296 293 291 289 285 282 279 278 278 278 278 279 280 280 280 280 279 279 278 277 276 276 276 276 276 277 278 280 281 282 284 285 286 287 288 288 288 288 287 287 286 285 284 284 283 282
282 282 282 283 283 283 284 284 285 285 285 284 284 285 286 286 286 288 290 293 295 296 297 298 298 299 300 301 300 298 297 295 295 295 295 296 299 302 304 301 298 295 294 293 289 284 280 277 276 276 277 278 280 280 281 281 280 279 278 278 277 277 277 278 278 279 281 283 284 285 286 287 287 288 288 287 287 287 286 286 285 284 283 283 282 281
281 282 282 284 286 288 289 290 292 292 293 292 292 292 291 291 291 293 295 298 301 302 301 302 303 305 306 303 300 298 296 295 296 296 296 297 299 302 303 302 301 299 297 295 292 286 282 278 275 275 277 278 280 280 281 280 279 278 278 278 277 277 278 279 280 282 283 284 285 286 287 287 287 287 287 286 286 286 285 284 283 283 282 281 280 280
282 284 286 288 291 293 295 297 299 301 302 304 304 303 301 301 302 303 305 309 311 311 310 310 310 310 309 304 301 299 299 298 296 296 297 298 300 302 304 305 304 301 299 297 293 288 282 278 276 275 276 278 279 280 280 279 279 278 278 278 278 278 279 280 281 282 284 285 285 286 286 286 286 286 285 284 284 283 283 282 281 280 280 279 279 278
284 286 288 291 293 295 297 299 300 301 303 305 306 306 305 305 306 309 313 316 316 313 311 311 312 312 312 310 308 307 307 306 303 299 298 298 300 304 307 309 308 305 302 300 296 290 284 278 275 274 274 276 277 278 278 278 278 278 278 278 278 278 279 280 281 282 283 284 285 285 285 285 284 284 283 282 282 281 280 279 279 278 278 278 278 278
283 285 287 289 291 292 293 294 294 294 296 297 297 298 301 303 304 305 309 311 310 307 305 307 309 311 313 313 312 312 312 312 309 304 300 300 302 306 310 312 312 309 306 303 298 292 286 280 276 273 273 273 274 274 275 275 276 276 276 276 276 277 278 279 281 282 283 283 284 284 283 283 282 281 281 280 279 279 278 278 278 278 278 278 279 280
287 287 287 288 288 289 289 289 289 290 290 290 289 290 293 298 299 300 303 304 303 301 301 303 306 307 309 309 310 311 313 313 311 307 303 302 304 307 311 314 314 313 310 305 299 292 289 282 276 273 271 271 270 270 271 271 272 272 273 274 275 277 278 279 280 281 282 282 282 282 282 281 280 280 279 279 278 278 278 278 278 278 279 279 280 281
291 291 291 291 291 291 290 290 290 290 291 290 289 288 289 293 295 297 298 299 298 297 298 300 302 303 305 306 308 310 314 315 313 308 304 304 305 308 312 314 316 316 314 310 306 301 296 285 276 271 268 267 267 267 268 270 271 272 273 274 276 278 279 280 281 282 282 282 282 282 281 281 280 279 279 279 278 278 278 279 279 279 280 280 281 282
289 289 289 290 291 290 290 290 291 292 293 293 291 290 289 289 290 291 292 293 294 295 296 297 298 299 300 302 303 307 313 315 314 309 304 303 305 308 312 314 315 316 315 313 313 311 306 292 279 273 270 269 269 270 271 273 274 274 275 276 277 278 279 280 281 281 282 282 282 281 281 281 280 279 279 278 278 278 278 278 278 279 279 280 280 281
285 285 285 286 286 287 287 288 290 292 293 293 291 289 288 286 286 287 288 289 291 292 293 294 295 295 296 297 298 303 310 312 311 309 304 303 304 307 310 311 313 313 313 310 309 309 306 297 289 283 279 277 275 274 274 274 275 276 276 276 277 277 278 279 280 280 281 281 281 281 280 280 280 279 278 278 277 277 277 277 277 277 278 278 279 280
283 282 281 282 282 283 284 286 288 289 290 290 290 288 286 285 284 284 285 286 287 288 289 291 291 292 292 292 294 299 307 308 307 306 305 303 304 306 308 309 311 311 311 308 304 301 299 298 295 291 287 284 282 281 279 279 279 280 280 281 281 281 282 282 283 283 283 282 282 281 281 280 279 278 278 277 277 277 276 276 276 276 276 277 277 278
281 278 277 277 278 279 281 283 284 286 287 288 287 286 285 283 283 282 282 282 283 284 285 287 287 288 288 288 290 296 303 303 303 303 303 303 304 305 307 309 311 311 310 309 307 303 300 299 299 299 296 293 292 293 293 293 293 293 293 293 293 292 292 291 291 289 288 287 286 284 283 281 280 279 278 278 277 277 276 276 275 275 274 275 275 276
278 275 274 274 274 276 277 279 281 283 285 286 285 285 283 282 281 280 279 279 279 279 280 281 282 284 285 287 290 294 301 299 299 301 303 303 303 304 305 308 310 312 311 310 309 308 306 304 304 305 304 302 301 301 303 303 303 303 303 302 301 300 299 297 296 294 292 290 288 287 285 283 281 280 279 278 277 276 276 275 274 273 273 273 273 274
282 280 277 276 276 277 277 278 280 282 283 284 283 282 281 279 278 277 276 275 275 275 275 276 277 279 281 285 289 293 298 298 300 302 304 303 303 303 304 307 309 310 309 308 308 308 307 307 307 308 308 307 307 307 308 308 308 308 308 307 305 304 302 301 299 297 295 293 291 289 287 285 283 281 279 278 277 275 275 274 273 272 272 272 272 273
285 283 280 278 277 277 278 278 279 280 281 281 281 280 278 277 275 274 274 274 274 274 273 273 273 275 278 281 286 290 294 296 298 300 302 302 302 301 302 304 306 307 306 306 306 306 306 307 307 308 309 309 310 311 313 312 312 312 312 311 310 308 306 305 303 302 300 298 296 293 290 288 286 283 281 279 277 275 274 274 273 272 272 272 273 274
284 282 280 277 276 277 277 278 278 279 279 279 279 278 276 274 273 273 273 273 273 273 273 272 272 274 276 280 284 287 290 293 294 296 297 298 298 298 299 301 302 302 302 302 302 303 304 305 306 308 310 310 311 313 314 315 316 316 316 315 313 312 311 310 308 307 305 303 300 297 295 292 289 286 283 280 278 276 275 274 273 273 273 273 273 274
283 280 278 277 276 276 276 277 277 277 277 276 275 274 273 273 272 273 273 274 274 273 273 273 273 275 277 280 284 287 290 292 294 295 295 295 296 296 296 298 299 299 298 298 299 299 300 302 304 307 309 311 312 313 314 316 317 317 317 316 315 314 313 313 312 311 309 307 304 302 299 296 292 289 285 282 279 278 276 275 274 273 273 272 272 272
282 279 278 277 277 276 276 276 275 274 273 271 271 271 271 271 272 272 273 274 273 273 273 273 274 276 279 282 285 288 291 293 294 294 294 294 294 294 294 295 295 295 295 295 295 296 298 300 303 306 309 311 312 313 315 315 316 317 317 316 316 316 314 313 313 312 311 309 307 305 302 299 296 292 289 286 283 281 279 278 277 276 275 275 274 274
281 279 278 277 277 277 276 275 272 271 270 269 269 269 270 270 271 272 273 273 272 272 272 273 274 276 279 282 286 289 291 292 293 293 293 293 293 292 292 292 292 292 292 293 293 294 297 300 303 306 308 310 311 312 313 314 315 316 317 316 316 315 313 312 312 312 311 310 308 307 305 302 299 296 293 290 288 286 284 283 281 280 278 277 278 278
280 279 278 278 278 277 275 272 270 268 268 269 270 270 270 271 272 272 272 272 272 272 272 273 274 276 279 282 286 289 291 292 292 293 293 292 291 291 291 291 291 291 292 292 293 295 298 300 302 305 307 309 310 310 311 312 313 315 315 315 314 312 310 311 312 312 311 310 309 308 306 304 302 299 297 295 293 291 289 288 286 285 284 283 282 282
279 278 278 278 278 277 275 272 271 270 269 269 269 270 270 270 271 272 272 271 271 271 273 275 277 278 280 283 287 290 292 294 294 293 292 291 290 290 290 291 291 292 292 293 295 297 299 301 303 304 306 308 308 308 309 311 313 313 314 314 314 313 312 311 311 311 310 310 310 309 308 306 304 302 300 299 297 295 294 292 291 290 289 289 288 288
277 277 276 276 276 275 274 274 273 272 270 269 269 269 269 269 270 270 270 270 269 270 272 274 277 279 281 283 285 288 290 292 292 291 290 288 288 288 289 290 291 292 293 294 295 297 300 301 302 304 306 306 306 307 308 310 312 313 313 313 312 311 309 309 310 310 310 310 310 310 309 308 306 304 302 300 299 298 297 296 295 294 294 294 294 293
276 274 274 274 274 274 273 272 271 271 270 269 268 269 270 270 270 270 270 269 269 270 271 274 277 279 281 283 285 287 287 287 287 287 286 286 286 287 288 289 291 292 294 294 296 297 299 300 302 304 305 305 305 305 307 309 311 312 311 311 310 308 306 307 308 310 310 311 311 311 311 310 308 306 304 303 302 302 301 301 300 300 299 299 299 298
273 273 272 272 272 272 272 271 270 270 269 268 268 269 271 272 272 272 271 271 270 271 272 275 278 280 283 286 287 288 288 287 286 284 283 285 286 288 289 290 292 293 295 295 296 297 298 299 301 303 303 304 304 305 306 308 309 310 309 309 307 305 305 306 308 310 311 311 311 312 313 311 310 309 307 306 305 304 303 303 303 303 302 302 302 302
273 272 272 271 271 272 272 272 272 272 272 271 271 271 272 273 274 273 272 272 272 272 274 276 279 281 284 286 288 289 289 288 286 283 281 282 284 287 289 291 292 293 295 296 297 297 298 299 300 301 301 301 302 303 305 306 306 306 306 306 305 304 304 306 308 310 310 311 313 314 314 314 313 312 310 309 307 306 305 304 303 303 303 303 304 304
274 273 273 273 273 274 274 274 275 275 275 274 273 272 273 273 274 274 273 273 274 274 275 277 279 281 283 285 287 288 289 288 286 284 281 280 281 283 286 288 290 291 293 294 296 297 298 298 298 298 298 298 299 301 303 304 304 303 303 303 303 304 305 307 309 311 312 313 314 315 316 316 315 313 312 310 308 307 306 306 305 304 304 305 305 305
275 275 275 275 276 276 277 277 278 278 278 276 275 273 272 273 273 273 273 274 275 276 277 278 280 281 283 285 286 287 287 287 286 285 283 282 282 282 284 285 287 288 290 291 292 293 293 293 293 293 293 295 297 299 301 302 301 301 301 301 303 305 306 308 310 312 314 315 315 316 316 315 314 313 311 310 309 308 307 307 306 305 306 307 307 307
275 276 277 277 278 279 280 280 281 281 280 279 277 274 272 270 270 271 272 273 275 276 277 278 280 282 283 285 286 286 287 287 287 287 287 286 286 286 287 288 288 289 290 289 289 290 290 290 290 291 292 294 296 297 299 299 300 300 300 301 303 305 307 308 310 313 314 315 315 315 315 314 313 313 312 310 309 308 308 307 307 306 306 307 307 307
275 276 277 278 279 280 281 281 282 282 281 280 278 276 273 270 268 268 269 271 272 274 276 278 279 281 282 284 285 286 287 288 288 289 291 291 291 292 292 292 292 293 293 293 293 293 294 294 295 295 295 295 297 297 297 297 298 299 300 301 302 304 305 306 309 312 313 314 314 313 313 313 313 312 311 308 306 306 306 306 306 305 304 304 305 305
Height
1517 1516 1515 1515 1515 1515 1514 1514 1514 1514 1513 1513 1512 1512 1512 1511 1511 1511 1512 1512 1512 1513 1513 1514 1514 1515 1515 1516 1516 1517 1517 1518 1518 1518 1518 1519 1519 1519 1519 1519 1519 1519 1518 1518 1517 1517 1517 1516 1516 1516 1516 1516 1516 1516 1517 1516 1516 1516 1516 1517 1517 1517 1518 1518 1518 1518 1518 1518 1518 1518 1518 1517 1517 1517 1516 1516 1516 1516 1516 1516 1517 1517 1517 1517 1517 1517
1515 1515 1515 1515 1514 1514 1514 1514 1513 1513 1512 1512 1511 1511 1511 1511 1511 1511 1511 1512 1512 1513 1513 1513 1514 1514 1515 1515 1515 1516 1516 1516 1517 1517 1517 1517 1517 1518 1518 1518 1517 1517 1517 1516 1516 1515 1515 1515 1515 1515 1515 1515 1515 1515 1515 1515 1515 1515 1515 1515 1516 1516 1516 1516 1516 1516 1516 1516 1516 1516 1515 1515 1515 1515 1515 1515 1515 1515 1515 1515 1515 1515 1515 1515 1515 1515
1515 1515 1514 1514 1514 1513 1513 1513 1512 1512 1511 1511 1510 1510 1510 1510 1510 1511 1511 1511 1512 1512 1512 1513 1513 1514 1514 1514 1515 1515 1515 1515 1516 1516 1516 1516 1516 1516 1516 1516 1516 1515 1515 1515 1515 1514 1514 1514 1514 1514 1514 1514 1514 1514 1514 1514 1514 1514 1515 1515 1515 1515 1515 1515 1514 1514 1514 1514 1514 1514 1513 1513 1513 1513 1513 1513 1513 1513 1513 1513 1513 1513 1513 1513 1513 1514
1514 1514 1514 1513 1513 1513 1512 1512 1511 1511 1511 1510 1510 1510 1510 1510 1510 1510 1510 1511 1511 1511 1512 1512 1512 1513 1513 1513 1514 1514 1514 1515 1515 1515 1515 1514 1514 1514 1514 1514 1514 1514 1513 1513 1513 1513 1513 1513 1513 1513 1513 1513 1513 1513 1513 1513 1513 1513 1513 1513 1513 1513 1513 1513 1513 1512 1512 1512 1512 1511 1511 1511 1511 1511 1511 1511 1511 1511 1511 1511 1511 1511 1511 1512 1512 1512
1513 1513 1513 1513 1512 1512 1511 1511 1511 1510 1510 1510 1509 1509 1509 1509 1510 1510 1510 1510 1510 1511 1511 1511 1511 1512 1512 1512 1512 1513 1513 1513 1513 1513 1513 1512 1512 1512 1512 1512 1512 1512 1512 1512 1512 1512 1512 1512 1512 1512 1512 1511 1511 1512 1512 1512 1512 1512 1512 1512 1512 1511 1511 1511 1511 1511 1510 1510 1510 1510 1510 1510 1510 1510 1510 1510 1510 1510 1510 1510 1510 1510 1510 1510 1510 1511
1513 1513 1513 1512 1512 1511 1511 1510 1510 1510 1509 1509 1509 1509 1509 1509 1509 1509 1509 1510 1510 1510 1510 1510 1510 1510 1510 1511 1511 1511 1511 1511 1511 1511 1511 1511 1511 1511 1511 1511 1511 1511 1511 1510 1510 1510 1510 1510 1510 1510 1510 1510 1510 1510 1510 1510 1510 1510 1510 1510 1510 1510 1510 1510 1509 1509 1509 1509 1508 1508 1508 1508 1508 1508 1508 1508 1508 1508 1508 1508 1508 1509 1509 1509 1509 1510
1512 1512 1512 1511 1511 1511 1510 1510 1509 1509 1509 1508 1508 1508 1508 1508 1508 1508 1509 1509 1509 1509 1509 1509 1509 1509 1509 1509 1509 1509 1509 1510 1510 1510 1510 1509 1510 1510 1510 1510 1510 1510 1509 1509 1509 1509 1509 1509 1509 1509 1509 1509 1509 1509 1509 1509 1509 1509 1509 1509 1508 1508 1508 1508 1507 1507 1507 1507 1507 1507 1507 1507 1507 1507 1507 1507 1507 1507 1507 1507 1507 1507 1508 1508 1508 1509
1511 1511 1511 1511 1510 1510 1510 1509 1509 1508 1508 1508 1508 1507 1507 1508 1508 1508 1508 1508 1508 1508 1508 1508 1508 1508 1508 1508 1508 1508 1508 1508 1508 1508 1508 1508 1508 1508 1508 1508 1508 1508 1508 1508 1508 1508 1508 1508 1508 1508 1508 1508 1508 1508 1508 1508 1507 1507 1507 1507 1507 1506 1506 1506 1506 1506 1505 1505 1505 1505 1505 1505 1505 1505 1505 1505 1505 1506 1506 1506 1506 1506 1507 1507 1507 1507
1511 1510 1510 1510 1510 1509 1509 1508 1508 1508 1508 1507 1507 1507 1507 1507 1507 1507 1507 1507 1507 1507 1507 1507 1507 1507 1507 1507 1507 1507 1507 1507 1507 1507 1507 1507 1507 1507 1507 1507 1507 1507 1507 1507 1507 1507 1507 1507 1507 1506 1506 1506 1506 1506 1506 1506 1506 1505 1505 1505 1505 1505 1504 1504 1504 1504 1504 1504 1504 1504 1504 1504 1504 1504 1505 1505 1505 1505 1505 1505 1505 1505 1505 1506 1506 1506
1510 1510 1509 1509 1509 1509 1508 1508 1507 1507 1507 1507 1507 1506 1506 1506 1506 1506 1506 1506 1506 1506 1506 1506 1506 1506 1506 1506 1506 1506 1506 1506 1506 1506 1506 1506 1506 1506 1506 1506 1506 1506 1506 1506 1506 1506 1506 1505 1505 1505 1505 1505 1505 1505 1504 1504 1504 1504 1503 1503 1503 1503 1502 1502 1502 1502 1503 1503 1503 1503 1503 1503 1503 1503 1503 1504 1504 1504 1504 1504 1504 1504 1505 1505 1505 1505
1509 1509 1508 1508 1508 1508 1507 1507 1507 1506 1506 1506 1506 1506 1506 1506 1506 1506 1505 1505 1505 1505 1505 1505 1505 1505 1505 1505 1505 1505 1505 1505 1505 1505 1505 1505 1505 1505 1505 1505 1505 1505 1505 1505 1505 1505 1504 1504 1504 1503 1503 1503 1503 1503 1503 1502 1502 1502 1501 1501 1501 1501 1501 1501 1501 1501 1501 1501 1501 1502 1502 1502 1502 1502 1502 1503 1503 1503 1503 1503 1503 1504 1504 1504 1504 1504
1508 1508 1507 1507 1507 1507 1506 1506 1506 1506 1506 1505 1505 1505 1505 1505 1505 1505 1505 1505 1504 1504 1504 1504 1504 1504 1504 1504 1504 1504 1504 1504 1504 1504 1504 1504 1504 1504 1504 1504 1504 1504 1504 1504 1503 1503 1503 1502 1502 1501 1501 1501 1501 1501 1501 1501 1500 1500 1500 1499 1499 1499 1499 1499 1500 1500 1500 1500 1500 1500 1501 1501 1501 1501 1501 1502 1502 1502 1502 1502 1502 1503 1503 1503 1503 1503
1507 1507 1506 1506 1506 1506 1505 1505 1505 1505 1505 1505 1505 1505 1504 1504 1504 1504 1504 1504 1504 1504 1504 1503 1503 1503 1503 1503 1503 1503 1503 1503 1503 1503 1503 1503 1503 1503 1503 1503 1503 1503 1502 1502 1502 1501 1501 1500 1500 1499 1499 1499 1499 1499 1499 1499 1498 1498 1498 1497 1497 1497 1498 1498 1498 1498 1499 1499 1499 1499 1500 1500 1500 1500 1500 1501 1501 1501 1501 1501 1501 1502 1502 1502 1502 1502
1506 1506 1505 1505 1505 1505 1505 1505 1505 1504 1504 1504 1504 1504 1504 1503 1503 1503 1503 1503 1503 1503 1503 1503 1502 1502 1502 1502 1502 1502 1502 1502 1502 1502 1502 1502 1502 1502 1502 1501 1501 1501 1501 1500 1500 1500 1499 1498 1498 1497 1497 1497 1497 1497 1497 1496 1496 1496 1496 1496 1496 1496 1496 1496 1497 1497 1497 1498 1498 1498 1499 1499 1499 1499 1499 1500 1500 1500 1500 1500 1500 1500 1500 1501 1501 1501
1505 1505 1505 1505 1504 1504 1504 1504 1504 1503 1503 1503 1503 1503 1503 1502 1502 1502 1502 1502 1502 1502 1502 1502 1502 1501 1501 1501 1501 1501 1501 1501 1501 1501 1501 1500 1500 1500 1500 1500 1500 1499 1499 1499 1498 1498 1497 1496 1495 1495 1495 1495 1495 1495 1495 1495 1495 1494 1494 1494 1495 1495 1495 1495 1495 1496 1496 1496 1497 1497 1497 1498 1498 1498 1498 1498 1499 1499 1499 1499 1499 1499 1499 1499 1499 1500
1504 1504 1504 1504 1504 1503 1503 1503 1503 1503 1502 1502 1502 1502 1502 1501 1501 1501 1501 1501 1501 1501 1501 1501 1501 1501 1500 1500 1500 1500 1500 1500 1500 1499 1499 1499 1499 1499 1499 1498 1498 1497 1497 1497 1497 1496 1495 1494 1494 1493 1493 1493 1493 1493 1493 1493 1493 1493 1493 1493 1493 1494 1494 1494 1495 1495 1495 1495 1496 1496 1496 1496 1497 1497 1497 1497 1497 1497 1498 1498 1498 1498 1498 1498 1498 1498
1503 1503 1503 1503 1503 1502 1502 1502 1502 1502 1501 1501 1501 1501 1501 1501 1500 1500 1500 1500 1500 1500 1500 1500 1500 1500 1499 1499 1499 1499 1499 1499 1498 1498 1498 1498 1498 1497 1497 1497 1496 1496 1496 1495 1495 1494 1493 1492 1492 1492 1492 1492 1491 1491 1491 1491 1491 1491 1492 1492 1492 1492 1493 1493 1493 1494 1494 1494 1495 1495 1495 1495 1495 1495 1496 1496 1496 1496 1496 1496 1496 1496 1496 1496 1496 1496
1502 1502 1502 1502 1502 1501 1501 1501 1501 1501 1500 1500 1500 1500 1500 1500 1500 1500 1499 1499 1499 1499 1499 1498 1498 1498 1498 1498 1497 1497 1497 1497 1497 1496 1496 1496 1496 1496 1496 1495 1495 1494 1494 1494 1493 1492 1491 1490 1490 1490 1490 1490 1490 1490 1490 1490 1490 1490 1490 1490 1491 1491 1491 1492 1492 1492 1493 1493 1493 1494 1494 1494 1494 1494 1494 1495 1495 1495 1495 1495 1495 1495 1495 1495 1495 1495
1501 1501 1501 1501 1501 1500 1500 1500 1500 1500 1500 1499 1499 1499 1499 1499 1499 1499 1498 1498 1498 1498 1497 1497 1497 1497 1497 1497 1496 1496 1496 1496 1495 1495 1494 1494 1494 1494 1494 1494 1493 1492 1492 1492 1491 1490 1489 1489 1489 1489 1489 1489 1489 1489 1489 1489 1489 1489 1489 1490 1490 1490 1490 1491 1491 1491 1491 1492 1492 1492 1492 1493 1493 1493 1493 1493 1493 1493 1493 1493 1493 1493 1493 1493 1493 1493
1500 1500 1500 1500 1500 1500 1499 1499 1499 1499 1499 1499 1498 1498 1498 1498 1498 1498 1497 1497 1497 1496 1496 1496 1496 1495 1495 1495 1495 1495 1495 1495 1494 1493 1492 1492 1492 1492 1492 1492 1491 1490 1490 1490 1489 1488 1488 1487 1487 1487 1487 1487 1487 1487 1487 1488 1488 1488 1488 1489 1489 1489 1489 1490 1490 1490 1490 1490 1491 1491 1491 1491 1491 1491 1491 1491 1491 1491 1491 1492 1492 1492 1492 1492 1492 1492
1499 1499 1499 1499 1499 1499 1498 1498 1498 1498 1498 1498 1497 1497 1497 1497 1497 1496 1496 1496 1496 1495 1495 1495 1495 1495 1494 1494 1494 1493 1493 1493 1492 1491 1490 1490 1490 1491 1490 1490 1490 1489 1489 1488 1488 1487 1486 1486 1486 1486 1486 1486 1486 1486 1486 1486 1487 1487 1487 1487 1488 1488 1488 1488 1489 1489 1489 1489 1489 1490 1490 1490 1490 1490 1490 1490 1490 1490 1490 1490 1490 1490 1490 1490 1490 1490
1498 1498 1498 1498 1498 1498 1497 1497 1497 1497 1497 1497 1496 1496 1496 1496 1495 1495 1495 1495 1495 1494 1494 1494 1494 1493 1493 1493 1492 1492 1491 1491 1491 1490 1489 1489 1489 1489 1489 1489 1488 1487 1487 1487 1486 1486 1485 1485 1485 1485 1485 1485 1485 1485 1485 1486 1486 1486 1486 1486 1487 1487 1487 1487 1487 1487 1488 1488 1488 1488 1488 1488 1488 1488 1488 1488 1488 1488 1488 1488 1488 1488 1488 1488 1488 1488
1497 1497 1497 1496 1496 1496 1496 1496 1496 1496 1496 1495 1495 1495 1495 1495 1495 1494 1494 1494 1494 1493 1493 1493 1492 1492 1492 1492 1491 1491 1490 1490 1490 1489 1488 1487 1487 1488 1488 1487 1487 1486 1486 1486 1485 1485 1485 1485 1484 1484 1484 1484 1484 1484 1485 1485 1485 1485 1485 1485 1485 1486 1486 1486 1486 1486 1486 1486 1486 1487 1487 1487 1487 1487 1486 1486 1486 1486 1486 1486 1486 1486 1486 1486 1486 1486
1496 1496 1495 1495 1495 1495 1495 1495 1495 1495 1495 1495 1494 1494 1494 1494 1494 1493 1493 1493 1492 1492 1492 1491 1491 1491 1491 1490 1490 1490 1489 1489 1488 1488 1487 1486 1486 1486 1486 1486 1485 1485 1485 1485 1485 1484 1484 1484 1483 1483 1483 1483 1483 1483 1484 1484 1484 1484 1484 1484 1485 1485 1485 1485 1485 1485 1485 1485 1485 1485 1485 1485 1485 1485 1485 1485 1485 1485 1484 1484 1484 1484 1484 1484 1484 1484
1495 1495 1494 1494 1494 1494 1494 1494 1494 1493 1493 1493 1493 1493 1493 1492 1492 1492 1492 1492 1491 1491 1491 1490 1490 1490 1490 1490 1489 1489 1488 1488 1487 1487 1486 1485 1485 1485 1485 1485 1484 1484 1484 1484 1484 1483 1483 1483 1482 1482 1482 1482 1482 1483 1483 1483 1483 1483 1483 1483 1483 1483 1483 1483 1483 1484 1484 1484 1484 1484 1483 1483 1483 1483 1483 1483 1483 1482 1482 1482 1482 1482 1482 1482 1482 1482
1493 1493 1493 1493 1493 1492 1492 1492 1492 1492 1491 1491 1491 1491 1491 1490 1490 1490 1490 1490 1490 1490 1489 1489 1489 1488 1488 1488 1488 1488 1487 1487 1486 1486 1485 1484 1484 1484 1484 1484 1483 1483 1483 1483 1483 1482 1482 1482 1481 1481 1481 1481 1481 1481 1482 1482 1482 1482 1482 1482 1482 1482 1482 1482 1482 1482 1482 1482 1482 1482 1482 1481 1481 1481 1481 1481 1481 1480 1480 1480 1480 1480 1480 1480 1480 1479
1492 1492 1492 1491 1491 1491 1491 1491 1491 1490 1490 1490 1490 1489 1489 1489 1489 1489 1489 1489 1489 1488 1488 1487 1487 1487 1487 1486 1486 1486 1486 1485 1485 1485 1484 1484 1483 1483 1483 1483 1482 1482 1482 1482 1482 1481 1481 1481 1480 1480 1480 1480 1480 1480 1480 1480 1480 1480 1480 1480 1480 1480 1480 1480 1480 1480 1480 1480 1480 1480 1480 1480 1480 1479 1479 1479 1479 1479 1479 1478 1478 1478 1478 1477 1477 1477
1491 1491 1490 1490 1490 1490 1490 1490 1490 1490 1489 1489 1489 1488 1488 1488 1487 1488 1488 1488 1487 1487 1487 1486 1486 1486 1485 1485 1485 1485 1485 1485 1484 1484 1483 1483 1482 1482 1482 1482 1481 1481 1480 1480 1480 1480 1480 1480 1480 1480 1480 1479 1480 1480 1480 1480 1480 1480 1479 1479 1479 1479 1479 1479 1479 1479 1479 1479 1479 1478 1478 1478 1478 1478 1477 1477 1477 1477 1476 1476 1476 1476 1475 1475 1474 1474
1490 1490 1489 1489 1489 1489 1489 1489 1489 1488 1488 1488 1488 1488 1487 1487 1486 1486 1486 1486 1486 1486 1485 1485 1485 1485 1484 1484 1484 1484 1484 1484 1483 1483 1482 1482 1481 1481 1481 1481 1480 1480 1480 1479 1479 1479 1479 1479 1478 1479 1478 1478 1478 1478 1478 1478 1478 1478 1478 1478 1478 1478 1478 1478 1478 1478 1477 1477 1477 1477 1476 1476 1476 1476 1475 1475 1475 1475 1474 1474 1474 1473 1473 1472 1471 1471
1488 1488 1488 1488 1487 1487 1487 1487 1487 1487 1487 1487 1487 1486 1486 1486 1485 1485 1485 1485 1485 1485 1485 1484 1484 1484 1483 1483 1482 1482 1483 1483 1482 1482 1482 1481 1480 1480 1480 1480 1480 1479 1479 1478 1478 1478 1477 1477 1477 1477 1477 1477 1478 1478 1477 1477 1477 1477 1477 1477 1477 1477 1477 1476 1476 1476 1476 1475 1475 1475 1475 1475 1474 1474 1473 1473 1472 1472 1472 1471 1471 1470 1470 1469 1469 1468
1487 1486 1486 1486 1486 1486 1486 1486 1486 1486 1485 1485 1485 1485 1485 1485 1485 1484 1484 1484 1484 1484 1483 1483 1483 1483 1483 1482 1482 1481 1481 1481 1481 1481 1481 1480 1480 1479 1479 1479 1479 1478 1478 1477 1477 1476 1476 1476 1476 1476 1477 1477 1477 1477 1477 1477 1477 1476 1476 1476 1476 1476 1475 1475 1475 1475 1474 1474 1474 1473 1473 1472 1472 1471 1471 1470 1470 1470 1469 1469 1469 1468 1467 1467 1466 1465
1485 1485 1485 1485 1485 1485 1485 1485 1485 1484 1484 1484 1484 1484 1484 1484 1484 1483 1483 1483 1483 1483 1482 1482 1482 1482 1482 1481 1481 1481 1481 1480 1480 1480 1480 1479 1479 1478 1478 1478 1478 1477 1477 1477 1476 1476 1475 1475 1475 1475 1476 1476 1476 1476 1476 1476 1476 1475 1475 1475 1475 1475 1475 1474 1474 1473 1473 1472 1472 1471 1471 1470 1470 1469 1469 1468 1468 1467 1467 1467 1466 1466 1465 1464 1464 1463
1485 1484 1484 1484 1484 1484 1484 1483 1483 1483 1483 1483 1483 1483 1483 1483 1482 1482 1482 1482 1482 1482 1481 1481 1481 1481 1481 1481 1480 1480 1480 1480 1480 1479 1479 1479 1478 1477 1477 1477 1477 1476 1476 1476 1475 1475 1475 1474 1474 1474 1474 1475 1475 1475 1475 1475 1475 1475 1474 1474 1474 1473 1473 1473 1472 1472 1471 1470 1470 1470 1469 1468 1468 1467 1466 1466 1465 1465 1465 1464 1464 1463 1463 1462 1461 1460
1484 1483 1483 1483 1483 1483 1482 1482 1482 1482 1482 1482 1482 1482 1481 1481 1481 1481 1481 1481 1481 1481 1480 1480 1480 1480 1480 1480 1480 1480 1480 1479 1479 1478 1478 1478 1477 1477 1476 1476 1476 1475 1475 1475 1475 1474 1474 1473 1473 1472 1472 1473 1473 1473 1473 1473 1473 1473 1473 1472 1472 1471 1471 1470 1470 1469 1469 1468 1468 1467 1467 1466 1465 1465 1464 1463 1463 1462 1462 1461 1461 1461 1460 1460 1459 1458
1483 1482 1482 1482 1482 1481 1481 1481 1481 1480 1480 1480 1480 1480 1480 1480 1480 1480 1480 1480 1480 1480 1480 1480 1479 1479 1479 1479 1479 1479 1479 1478 1478 1478 1477 1477 1476 1476 1475 1475 1475 1475 1474 1474 1473 1473 1472 1472 1472 1471 1471 1471 1471 1472 1472 1471 1471 1471 1471 1470 1470 1469 1469 1468 1468 1467 1466 1466 1465 1465 1464 1463 1463 1462 1461 1461 1460 1460 1459 1459 1459 1458 1458 1457 1456 1456
1481 1481 1481 1481 1480 1480 1480 1480 1480 1480 1479 1479 1479 1479 1479 1479 1479 1479 1479 1479 1479 1479 1478 1478 1478 1478 1478 1478 1478 1478 1478 1477 1477 1477 1476 1476 1475 1475 1475 1474 1474 1474 1473 1473 1472 1472 1471 1471 1470 1470 1470 1470 1469 1470 1470 1470 1469 1469 1469 1468 1468 1467 1466 1466 1465 1465 1464 1463 1462 1462 1461 1461 1460 1460 1459 1458 1458 1457 1457 1456 1456 1456 1455 1455 1454 1454
1480 1480 1480 1480 1480 1479 1479 1479 1479 1478 1478 1478 1478 1478 1478 1478 1478 1478 1478 1477 1477 1477 1477 1477 1477 1477 1477 1477 1477 1477 1477 1477 1476 1476 1475 1475 1475 1474 1474 1473 1473 1473 1472 1472 1471 1471 1470 1470 1469 1469 1469 1468 1468 1467 1467 1467 1467 1467 1466 1466 1465 1465 1464 1463 1463 1462 1461 1460 1460 1459 1459 1458 1458 1457 1457 1456 1455 1455 1455 1455 1454 1454 1453 1453 1452 1452
1479 1479 1479 1479 1478 1478 1478 1478 1477 1477 1477 1477 1477 1477 1477 1477 1476 1476 1476 1476 1476 1476 1476 1476 1476 1476 1476 1476 1476 1476 1476 1475 1475 1475 1475 1474 1474 1474 1473 1473 1472 1472 1472 1471 1470 1470 1469 1469 1468 1467 1467 1466 1466 1466 1465 1465 1465 1464 1464 1463 1463 1462 1461 1461 1460 1460 1459 1458 1458 1457 1457 1456 1456 1455 1455 1454 1454 1453 1453 1453 1452 1452 1452 1451 1451 1450
1478 1478 1478 1477 1477 1477 1477 1477 1476 1476 1476 1476 1476 1476 1475 1475 1475 1475 1475 1475 1475 1475 1475 1475 1475 1475 1475 1475 1475 1475 1475 1475 1474 1474 1474 1473 1473 1473 1472 1472 1471 1471 1471 1470 1470 1469 1468 1468 1467 1466 1465 1465 1464 1464 1463 1463 1462 1462 1461 1461 1460 1460 1459 1459 1458 1457 1457 1456 1456 1455 1455 1454 1454 1453 1453 1452 1452 1452 1451 1451 1451 1450 1450 1450 1449 1449
1477 1477 1476 1476 1476 1476 1476 1475 1475 1475 1475 1475 1475 1475 1475 1475 1474 1474 1474 1474 1474 1474 1474 1474 1474 1474 1474 1474 1474 1474 1473 1473 1473 1473 1472 1472 1472 1471 1471 1470 1470 1470 1470 1469 1469 1468 1467 1467 1466 1465 1465 1463 1462 1462 1461 1461 1461 1460 1460 1459 1458 1458 1457 1457 1456 1456 1455 1455 1454 1453 1453 1452 1452 1452 1451 1451 1450 1450 1450 1450 1449 1449 1448 1448 1447 1447
1476 1476 1475 1475 1475 1475 1475 1475 1474 1474 1474 1474 1474 1474 1474 1473 1473 1473 1473 1473 1473 1473 1473 1473 1473 1473 1473 1473 1472 1472 1472 1472 1472 1471 1471 1471 1470 1470 1470 1469 1469 1469 1468 1468 1467 1467 1466 1465 1465 1464 1463 1462 1461 1460 1460 1460 1459 1459 1458 1457 1456 1455 1455 1455 1455 1454 1454 1453 1452 1452 1451 1450 1450 1450 1449 1449 1449 1448 1448 1448 1447 1447 1446 1446 1445 1445
1475 1475 1475 1474 1474 1474 1474 1474 1473 1473 1473 1473 1473 1473 1472 1472 1472 1472 1472 1472 1472 1472 1471 1471 1471 1471 1471 1471 1471 1471 1471 1470 1470 1470 1470 1469 1469 1469 1468 1468 1467 1467 1467 1466 1465 1465 1465 1464 1463 1462 1462 1461 1460 1459 1458 1458 1458 1457 1457 1456 1455 1454 1453 1453 1453 1453 1452 1451 1451 1450 1450 1449 1448 1448 1447 1447 1446 1446 1446 1445 1445 1445 1444 1443 1443 1442
1474 1474 1474 1473 1473 1473 1472 1472 1472 1472 1472 1472 1472 1471 1471 1471 1471 1471 1471 1471 1471 1470 1470 1470 1470 1470 1470 1470 1470 1470 1470 1469 1469 1469 1468 1468 1467 1467 1467 1466 1466 1465 1465 1465 1464 1463 1463 1462 1461 1461 1460 1460 1459 1458 1456 1456 1456 1456 1455 1455 1454 1452 1451 1451 1451 1451 1450 1450 1449 1449 1448 1447 1446 1445 1445 1445 1444 1444 1443 1443 1442 1442 1441 1441 1440 1440
1473 1473 1472 1472 1472 1472 1471 1471 1471 1471 1471 1471 1470 1470 1470 1470 1470 1470 1470 1470 1470 1469 1469 1469 1469 1469 1469 1469 1469 1469 1469 1468 1468 1467 1467 1466 1466 1465 1465 1465 1465 1464 1464 1463 1462 1462 1461 1460 1460 1459 1459 1458 1457 1456 1455 1455 1454 1454 1453 1453 1452 1451 1450 1449 1449 1449 1448 1448 1447 1447 1446 1445 1444 1443 1443 1442 1442 1441 1440 1440 1440 1439 1439 1438 1437 1437
1472 1472 1471 1471 1471 1471 1470 1470 1470 1470 1470 1470 1470 1469 1469 1469 1469 1469 1469 1469 1468 1468 1468 1468 1468 1468 1467 1468 1468 1467 1467 1467 1467 1466 1465 1465 1465 1464 1464 1463 1463 1462 1462 1461 1461 1460 1460 1459 1458 1457 1457 1456 1455 1455 1454 1453 1452 1452 1451 1451 1450 1450 1448 1448 1447 1447 1446 1446 1445 1445 1444 1443 1442 1441 1440 1440 1439 1438 1438 1437 1436 1436 1435 1435 1434 1434
1471 1471 1470 1470 1470 1470 1470 1469 1469 1469 1469 1469 1468 1468 1468 1467 1467 1467 1467 1467 1467 1467 1467 1466 1466 1466 1466 1466 1466 1466 1466 1466 1465 1465 1464 1464 1463 1463 1462 1462 1461 1461 1460 1460 1459 1459 1458 1457 1456 1456 1455 1454 1453 1452 1452 1451 1451 1450 1449 1449 1449 1448 1447 1446 1446 1445 1445 1444 1443 1443 1442 1441 1440 1439 1438 1437 1436 1436 1435 1435 1434 1433 1433 1432 1431 1431
1470 1470 1469 1469 1469 1469 1468 1468 1468 1468 1468 1467 1467 1467 1466 1466 1466 1466 1466 1466 1466 1465 1465 1465 1465 1465 1465 1465 1464 1464 1464 1464 1464 1464 1464 1463 1462 1461 1461 1460 1460 1459 1459 1458 1457 1457 1456 1455 1455 1454 1453 1452 1451 1450 1450 1450 1450 1449 1448 1447 1446 1446 1445 1445 1444 1444 1443 1442 1441 1441 1440 1439 1438 1437 1436 1435 1434 1433 1433 1432 1432 1431 1430 1430 1429 1429
1469 1468 1468 1468 1468 1467 1467 1467 1467 1467 1466 1466 1466 1466 1465 1465 1465 1465 1465 1464 1464 1464 1464 1464 1463 1463 1463 1463 1463 1463 1463 1463 1463 1463 1462 1462 1461 1461 1460 1460 1459 1458 1457 1457 1456 1455 1455 1454 1453 1452 1452 1451 1450 1449 1448 1448 1448 1447 1446 1445 1445 1444 1443 1443 1442 1442 1441 1440 1440 1439 1438 1438 1436 1435 1434 1433 1432 1431 1430 1430 1429 1429 1428 1427 1427 1426
1467 1467 1467 1467 1466 1466 1466 1466 1466 1465 1465 1465 1465 1465 1464 1464 1464 1464 1463 1463 1463 1463 1462 1462 1462 1462 1461 1461 1461 1461 1461 1461 1461 1461 1461 1460 1460 1460 1459 1459 1458 1457 1456 1455 1455 1454 1453 1452 1452 1451 1450 1450 1450 1449 1447 1447 1446 1445 1445 1444 1443 1442 1441 1440 1440 1440 1439 1439 1438 1437 1436 1436 1435 1434 1433 1431 1430 1428 1427 1427 1426 1426 1425 1425 1424 1424
1466 1466 1466 1465 1465 1465 1465 1465 1464 1464 1464 1464 1464 1463 1463 1463 1463 1462 1462 1462 1461 1461 1461 1460 1460 1460 1460 1460 1460 1460 1459 1459 1459 1459 1459 1458 1458 1458 1457 1457 1456 1456 1455 1454 1453 1453 1452 1451 1450 1449 1449 1449 1448 1448 1446 1445 1444 1444 1443 1442 1441 1441 1440 1439 1438 1438 1438 1437 1436 1435 1435 1434 1433 1432 1430 1429 1427 1425 1425 1424 1423 1423 1423 1422 1422 1421
1465 1465 1465 1464 1464 1464 1464 1463 1463 1463 1463 1462 1462 1462 1462 1462 1461 1461 1461 1460 1460 1460 1460 1459 1459 1459 1458 1458 1458 1458 1458 1457 1457 1457 1457 1456 1456 1456 1455 1455 1454 1454 1453 1452 1451 1450 1449 1448 1447 1446 1446 1446 1446 1446 1445 1444 1443 1442 1441 1440 1440 1439 1439 1437 1437 1436 1436 1435 1434 1433 1432 1431 1430 1429 1428 1427 1425 1424 1422 1421 1420 1420 1420 1420 1420 1419